Location: Unspecified
(0.0000°N, 0.0000°E)
Time: 23:11:54
(UTC+00:00)

ITAMSAT 1 - Pass Details

Date: 09 December 2017
Orbit: 783 x 797 km, 98.8° (Epoch: 18 January)

Event Time Altitude Azimuth Distance (km) Brightness Sun altitude
Exits shadow 03:28:01 21° 184° (S) 1,695 9.5 -32.9°
Drops below altitude 10° 03:29:41 10° 187° (S) 2,341 10.3 -32.5°
Sets 03:32:01 0° 189° (S) 3,272 11.1 -32.0°
